This is the latest recevied weather packets stored in our database for station/object W4ZHA. If no packets are shown the sender has not sent any weather packets the latest 10 day(s).
| Time | Temp. | Humidity | Pressure | Rain* | Wind** | Luminosity | Snow |
|---|---|---|---|---|---|---|---|
| 1777591621 | 19.44° C | 57% | 1013 hPa | 0 mm | - | 48 W/m² | - |
| 1777591317 | 19.44° C | 57% | 1012.7 hPa | 0 mm | - | 52 W/m² | - |
| 1777591013 | 20° C | 57% | 1013 hPa | 0 mm | - | 48 W/m² | - |
| 1777590708 | 20° C | 56% | 1013 hPa | 0 mm | - | 85 W/m² | - |
| 1777590404 | 19.44° C | 56% | 1013 hPa | 0 mm | - | 76 W/m² | - |
| 1777590102 | 19.44° C | 56% | 1013 hPa | 0 mm | - | 72 W/m² | - |
| 1777589798 | 20° C | 56% | 1013 hPa | 0 mm | - | 83 W/m² | - |
| 1777589498 | 19.44° C | 56% | 1013 hPa | 0 mm | - | 103 W/m² | - |
| 1777589192 | 20° C | 55% | 1013 hPa | 0 mm | - | 103 W/m² | - |
| 1777588889 | 20.56° C | 53% | 1012.7 hPa | 0 mm | - | 92 W/m² | - |
| 1777588585 | 20.56° C | 53% | 1013 hPa | 0 mm | - | 137 W/m² | - |
| 1777588280 | 20.56° C | 53% | 1012.7 hPa | 0 mm | - | 197 W/m² | - |
| 1777587976 | 20° C | 53% | 1013 hPa | 0 mm | - | 328 W/m² | - |
| 1777587672 | 20° C | 52% | 1013 hPa | 0 mm | - | 187 W/m² | - |
| 1777587372 | 20.56° C | 52% | 1013 hPa | 0 mm | - | 299 W/m² | - |
| 1777587068 | 20.56° C | 52% | 1012.7 hPa | 0 mm | - | 327 W/m² | - |
| 1777586764 | 21.11° C | 53% | 1013 hPa | 0 mm | - | 266 W/m² | - |
| 1777586460 | 21.11° C | 52% | 1012.7 hPa | 0 mm | - | 239 W/m² | - |
| 1777586155 | 20.56° C | 52% | 1013 hPa | 0 mm | - | 300 W/m² | - |
| 1777585853 | 20.56° C | 53% | 1012.7 hPa | 0 mm | - | 233 W/m² | - |
| 1777585553 | 21.11° C | 53% | 1012.7 hPa | 0 mm | - | 276 W/m² | - |
| 1777585249 | 21.11° C | 52% | 1012.7 hPa | 0 mm | - | 278 W/m² | - |
| 1777584944 | 20° C | 53% | 1012.7 hPa | 0 mm | - | 280 W/m² | - |
| 1777584641 | 20.56° C | 53% | 1013 hPa | 0 mm | - | 210 W/m² | - |
| 1777584338 | 21.11° C | 52% | 1013 hPa | 0 mm | - | 212 W/m² | - |
* Rain latest hour (hover to see other rain measurements)
** Current wind speed in m/s (hover to see current wind gust speed)